When you browse on this site, cookies collect data to enhance your experience and personalize the content and advertising you see.
Visit our Privacy Policy to learn more. By continuing to use the site, you agree to this use of cookies and data.
  • En España
  • Lista de países
  • Para 7 días
  • Temperatura del agua
  • El tiempo en el mapa
  • Informadores
  • user-avatar
    Iniciar sesión

    Tiempo cada hora Kindia

    Hoy, 20 Febrero, Jueves

    Tiempo Temperatura Precipitaciones Viento Presión Humedad
    00:00 +22°C° 0 mm 4 mps 706 mmHg 21%
    01:00 +21°C° 0 mm 3 mps 706 mmHg 22%
    02:00 +20°C° 0 mm 3 mps 706 mmHg 24%
    03:00 +20°C° 0 mm 3 mps 706 mmHg 26%
    04:00 +19°C° 0 mm 3 mps 706 mmHg 28%
    05:00 +19°C° 0 mm 3 mps 706 mmHg 30%
    06:00 +19°C° 0 mm 3 mps 707 mmHg 32%
    07:00 +19°C° 0 mm 2 mps 707 mmHg 33%
    08:00 +22°C° 0 mm 3 mps 708 mmHg 28%
    09:00 +26°C° 0 mm 3 mps 708 mmHg 24%
    10:00 +29°C° 0 mm 3 mps 709 mmHg 19%
    11:00 +31°C° 0 mm 3 mps 708 mmHg 16%
    12:00 +35°C° 0 mm 2 mps 707 mmHg 13%
    13:00 +38°C° 0 mm 2 mps 707 mmHg 11%
    14:00 +38°C° 0 mm 2 mps 706 mmHg 11%
    15:00 +38°C° 0 mm 2 mps 705 mmHg 10%
    16:00 +39°C° 0 mm 3 mps 704 mmHg 10%
    17:00 +36°C° 0 mm 2 mps 704 mmHg 12%
    18:00 +32°C° 0 mm 2 mps 704 mmHg 14%
    19:00 +30°C° 0 mm 2 mps 704 mmHg 16%
    20:00 +29°C° 0 mm 3 mps 705 mmHg 17%
    21:00 +28°C° 0 mm 3 mps 705 mmHg 19%
    22:00 +27°C° 0 mm 4 mps 706 mmHg 20%
    23:00 +26°C° 0 mm 4 mps 706 mmHg 21%

    Mañana, 21 Febrero, Viernes

    Tiempo Temperatura Precipitaciones Viento Presión Humedad
    00:00 +25°C° 0 mm 4 mps 705 mmHg 23%
    01:00 +23°C° 0 mm 4 mps 705 mmHg 24%
    02:00 +23°C° 0 mm 4 mps 705 mmHg 24%
    03:00 +22°C° 0 mm 4 mps 705 mmHg 24%
    04:00 +22°C° 0 mm 4 mps 705 mmHg 24%
    05:00 +21°C° 0 mm 4 mps 705 mmHg 25%
    06:00 +21°C° 0 mm 3 mps 706 mmHg 26%
    07:00 +20°C° 0 mm 3 mps 706 mmHg 28%
    14:00 +39°C° 0 mm 3 mps 706 mmHg 10%
    15:00 +40°C° 0 mm 3 mps 706 mmHg 10%
    16:00 +40°C° 0 mm 3 mps 705 mmHg 10%
    17:00 +38°C° 0 mm 3 mps 705 mmHg 11%
    18:00 +35°C° 0 mm 3 mps 705 mmHg 13%
    19:00 +33°C° 0 mm 3 mps 705 mmHg 14%
    20:00 +31°C° 0 mm 2 mps 705 mmHg 15%
    21:00 +30°C° 0 mm 2 mps 706 mmHg 15%
    22:00 +29°C° 0 mm 2 mps 706 mmHg 16%
    23:00 +28°C° 0 mm 3 mps 706 mmHg 17%

    Pasado mañana, 22 Febrero, Sábado

    Tiempo Temperatura Precipitaciones Viento Presión Humedad
    00:00 +27°C° 0 mm 3 mps 705 mmHg 18%
    01:00 +26°C° 0 mm 4 mps 705 mmHg 19%
    02:00 +25°C° 0 mm 4 mps 705 mmHg 19%
    03:00 +25°C° 0 mm 4 mps 705 mmHg 18%
    04:00 +25°C° 0 mm 5 mps 704 mmHg 18%
    05:00 +23°C° 0 mm 4 mps 705 mmHg 19%
    06:00 +23°C° 0 mm 4 mps 705 mmHg 19%
    07:00 +22°C° 0 mm 3 mps 706 mmHg 20%
    08:00 +26°C° 0 mm 3 mps 707 mmHg 18%
    09:00 +29°C° 0 mm 3 mps 708 mmHg 16%
    10:00 +33°C° 0 mm 3 mps 709 mmHg 13%
    11:00 +36°C° 0 mm 3 mps 708 mmHg 12%
    12:00 +38°C° 0 mm 3 mps 708 mmHg 10%
    13:00 +40°C° 0 mm 3 mps 707 mmHg 8%
    14:00 +42°C° 0 mm 3 mps 707 mmHg 8%
    15:00 +42°C° 0 mm 3 mps 706 mmHg 8%
    16:00 +42°C° 0 mm 3 mps 706 mmHg 8%
    17:00 +38°C° 0 mm 3 mps 705 mmHg 9%
    18:00 +36°C° 0 mm 3 mps 705 mmHg 10%
    19:00 +33°C° 0 mm 3 mps 705 mmHg 12%
    20:00 +32°C° 0 mm 4 mps 706 mmHg 12%
    21:00 +30°C° 0 mm 5 mps 706 mmHg 13%
    22:00 +28°C° 0 mm 5 mps 707 mmHg 13%
    23:00 +28°C° 0 mm 5 mps 707 mmHg 13%

    23 Febrero, Domingo

    Tiempo Temperatura Precipitaciones Viento Presión Humedad
    00:00 +27°C° 0 mm 5 mps 706 mmHg 13%
    01:00 +26°C° 0 mm 5 mps 706 mmHg 13%
    02:00 +25°C° 0 mm 5 mps 706 mmHg 16%
    03:00 +25°C° 0 mm 5 mps 706 mmHg 18%
    04:00 +23°C° 0 mm 5 mps 706 mmHg 20%
    05:00 +22°C° 0 mm 4 mps 706 mmHg 23%
    06:00 +21°C° 0 mm 3 mps 707 mmHg 25%
    07:00 +21°C° 0 mm 3 mps 707 mmHg 27%
    08:00 +25°C° 0 mm 3 mps 708 mmHg 22%
    09:00 +28°C° 0 mm 3 mps 709 mmHg 16%
    10:00 +33°C° 0 mm 3 mps 710 mmHg 11%
    11:00 +35°C° 0 mm 3 mps 709 mmHg 9%
    12:00 +37°C° 0 mm 3 mps 708 mmHg 8%
    13:00 +40°C° 0 mm 4 mps 708 mmHg 6%
    14:00 +40°C° 0 mm 4 mps 707 mmHg 6%
    15:00 +40°C° 0 mm 4 mps 707 mmHg 6%
    16:00 +40°C° 0 mm 5 mps 706 mmHg 6%
    17:00 +37°C° 0 mm 4 mps 706 mmHg 8%
    18:00 +34°C° 0 mm 4 mps 706 mmHg 9%
    19:00 +31°C° 0 mm 3 mps 706 mmHg 11%
    20:00 +29°C° 0 mm 4 mps 706 mmHg 12%
    21:00 +28°C° 0 mm 4 mps 707 mmHg 12%
    22:00 +27°C° 0 mm 5 mps 707 mmHg 13%
    23:00 +26°C° 0 mm 5 mps 707 mmHg 14%

    24 Febrero, Lunes

    Tiempo Temperatura Precipitaciones Viento Presión Humedad
    00:00 +25°C° 0 mm 5 mps 707 mmHg 14%
    01:00 +25°C° 0 mm 5 mps 707 mmHg 15%
    02:00 +23°C° 0 mm 5 mps 706 mmHg 17%
    03:00 +22°C° 0 mm 5 mps 706 mmHg 20%
    04:00 +21°C° 0 mm 5 mps 706 mmHg 23%
    05:00 +21°C° 0 mm 5 mps 706 mmHg 26%
    06:00 +20°C° 0 mm 4 mps 707 mmHg 29%
    07:00 +20°C° 0 mm 4 mps 707 mmHg 32%
    08:00 +23°C° 0 mm 4 mps 708 mmHg 26%
    09:00 +27°C° 0 mm 4 mps 709 mmHg 20%
    10:00 +30°C° 0 mm 4 mps 709 mmHg 14%
    11:00 +32°C° 0 mm 4 mps 709 mmHg 12%
    12:00 +34°C° 0 mm 4 mps 708 mmHg 10%
    13:00 +36°C° 0 mm 4 mps 707 mmHg 9%
    14:00 +36°C° 0 mm 4 mps 707 mmHg 9%
    15:00 +37°C° 0 mm 4 mps 706 mmHg 8%
    16:00 +37°C° 0 mm 4 mps 705 mmHg 8%
    17:00 +34°C° 0 mm 3 mps 705 mmHg 10%
    18:00 +31°C° 0 mm 3 mps 706 mmHg 12%
    19:00 +29°C° 0 mm 3 mps 706 mmHg 14%
    20:00 +27°C° 0 mm 4 mps 706 mmHg 16%
    21:00 +26°C° 0 mm 4 mps 706 mmHg 19%
    22:00 +23°C° 0 mm 5 mps 707 mmHg 22%
    23:00 +23°C° 0 mm 5 mps 706 mmHg 22%

    25 Febrero, Martes

    Tiempo Temperatura Precipitaciones Viento Presión Humedad
    00:00 +22°C° 0 mm 5 mps 706 mmHg 22%
    01:00 +21°C° 0 mm 5 mps 706 mmHg 22%
    02:00 +20°C° 0 mm 4 mps 706 mmHg 24%
    03:00 +19°C° 0 mm 4 mps 706 mmHg 26%
    04:00 +19°C° 0 mm 4 mps 706 mmHg 28%
    05:00 +18°C° 0 mm 4 mps 706 mmHg 31%
    06:00 +18°C° 0 mm 4 mps 707 mmHg 34%
    07:00 +17°C° 0 mm 3 mps 707 mmHg 37%
    08:00 +20°C° 0 mm 3 mps 708 mmHg 30%
    09:00 +24°C° 0 mm 3 mps 708 mmHg 23%
    10:00 +27°C° 0 mm 4 mps 709 mmHg 17%
    11:00 +30°C° 0 mm 3 mps 709 mmHg 14%
    12:00 +34°C° 0 mm 2 mps 708 mmHg 12%
    13:00 +36°C° 0 mm 2 mps 708 mmHg 9%
    14:00 +36°C° 0 mm 2 mps 707 mmHg 9%
    15:00 +36°C° 0 mm 2 mps 706 mmHg 9%
    16:00 +37°C° 0 mm 2 mps 706 mmHg 9%
    17:00 +34°C° 0 mm 2 mps 706 mmHg 10%
    18:00 +30°C° 0 mm 2 mps 706 mmHg 12%
    19:00 +28°C° 0 mm 2 mps 706 mmHg 14%
    20:00 +26°C° 0 mm 3 mps 706 mmHg 15%
    21:00 +25°C° 0 mm 4 mps 706 mmHg 17%
    22:00 +23°C° 0 mm 5 mps 707 mmHg 18%
    23:00 +22°C° 0 mm 4 mps 707 mmHg 20%
    Mostrar más